,

(GMT )
Beauceville

Weather History for CWHV - March, 2013

Change the Weather History Date:

Sunday, March 10, 2013

  Actual Average Record
Temperature  
Mean Temperature 34 °F -  
Max Temperature 50 °F - - ()
Min Temperature 18 °F - - ()
Degree Days  
Heating Degree Days 31    
Moisture  
Dew Point 20 °F    
Average Humidity 61    
Maximum Humidity 94    
Minimum Humidity 19    
Precipitation  
Precipitation 0.00 in - - ()
Sea Level Pressure  
Sea Level Pressure 30.23 in    
Wind  
Wind Speed 3 mph ()    
Max Wind Speed 8 mph    
Max Gust Speed -    
T = Trace of Precipitation, MM = Missing Value Source: Averaged Metar Reports

Daily Weather History Graph

Daily Weather History Graph

Search for Another Location

Airport or City:

Trip Planner

Search our weather history database for the weather conditions in past years. The results will help you decide how hot, cold, wet, or windy it might be!

Date:

Astronomy

Mar. 10, 2013 Rise Set
Actual Time 7:05 AM EDT 6:42 PM EDT
Civil Twilight 6:35 AM EDT 7:12 PM EDT
Nautical Twilight 6:00 AM EDT 7:47 PM EDT
Astronomical Twilight 5:25 AM EDT 8:22 PM EDT
Moon 6:05 AM EDT (3/10) 5:46 PM EDT (3/10)
Length of Visible Light 12h 37m
Length of Day
11h 37m
Waning Crescent, 2% of the Moon is Illuminated
Mar 10
Waning Crescent
Mar 11
New
Mar 19
First Quarter
Mar 27
Full
Apr 3
Last Quarter

Hourly Weather History & Observations

Time (EDT) Temp. Windchill Dew Point Humidity Pressure Visibility Wind Dir Wind Speed Gust Speed Precip Events Conditions
1:00 AM 21 °F - 19 °F 90% 30.36 in - SSE 1.2 mph - -  
1:00 AM 20.8 °F - 19.2 °F 93% 30.36 in - SSE 1.2 mph - N/A   Unknown
4:00 AM 19.4 °F - 18.0 °F 94% 30.32 in - South 2.3 mph - N/A   Unknown
5:00 AM 18.9 °F 13.7 °F 17.2 °F 93% 30.32 in - South 3.5 mph - N/A   Unknown
6:00 AM 18.1 °F 12.9 °F 16.7 °F 94% 30.32 in - South 3.5 mph - N/A   Unknown
7:00 AM 18.0 °F - 16.3 °F 93% 30.33 in - South 2.3 mph - N/A   Unknown
8:00 AM 18 °F - 17 °F 91% 30.34 in - SSE 3.5 mph - -  
8:00 AM 18.3 °F 13.1 °F 16.5 °F 93% 30.34 in - SSE 3.5 mph - N/A   Unknown
9:00 AM 21.2 °F - 18.3 °F 89% 30.33 in - SSE 2.3 mph - N/A   Unknown
10:00 AM 26.8 °F 22.8 °F 19.8 °F 75% 30.32 in - SE 3.5 mph - N/A   Unknown
11:00 AM 31.8 °F 26.2 °F 21.0 °F 64% 30.30 in - ESE 5.8 mph - N/A   Unknown
12:00 PM 38.1 °F 33.7 °F 20.3 °F 49% 30.27 in - East 5.8 mph - N/A   Unknown
1:00 PM 43.2 °F 39.0 °F 19.9 °F 40% 30.24 in - ESE 6.9 mph - N/A   Unknown
2:00 PM 47 °F - 18 °F 19% 30.20 in - East 3.5 mph - -  
2:00 PM 47.1 °F - 18.0 °F 31% 30.20 in - East 3.5 mph - N/A   Unknown
3:00 PM 49.1 °F - 18.9 °F 30% 30.19 in - ENE 2.3 mph - N/A   Unknown
4:00 PM 49.1 °F - 18.7 °F 30% 30.16 in - ESE 2.3 mph - N/A   Unknown
5:00 PM 50.2 °F - 19.6 °F 30% 30.15 in - SE 4.6 mph - N/A   Unknown
6:00 PM 47.8 °F - 21.4 °F 35% 30.13 in - ESE 8.1 mph - N/A   Unknown
7:00 PM 45.3 °F 41.1 °F 22.8 °F 41% 30.11 in - SE 8.1 mph - N/A   Unknown
8:00 PM 43 °F - 24 °F 34% 30.13 in - SE 5.8 mph - -  
8:00 PM 42.8 °F 39.3 °F 24.1 °F 48% 30.13 in - SE 5.8 mph - N/A   Unknown
9:00 PM 41.0 °F 36.4 °F 24.4 °F 52% 30.12 in - SE 6.9 mph - N/A   Unknown
10:00 PM 40.6 °F 36.0 °F 24.6 °F 53% 30.10 in - SE 6.9 mph - N/A   Unknown
11:00 PM 39.7 °F 36.5 °F 25.2 °F 56% 30.12 in - SE 4.6 mph - N/A   Unknown
12:00 AM 38.5 °F 34.1 °F 25.0 °F 58% 30.12 in - SE 5.8 mph - N/A   Unknown